Location: Mahannah Oil Field
(37.4664°N, 96.6003°W)
Time: 15:06:37
(UTC+00:00)

Courier 1B - Visible Passes

Search period start: 25 January 2021 00:00
Search period end: 04 February 2021 00:00
Orbit: 962 x 1209 km, 28.3° (Epoch: 24 January)

Date Brightness Start Highest point End Pass type
(mag) Time Alt. Az. Time Alt. Az. Time Alt. Az.
25 Jan 9.6 10:59:35 13° S 10:59:35 13° S 11:00:55 10° S visible
28 Jan 9.8 02:32:38 10° SSW 02:34:01 13° S 02:34:01 13° S visible
29 Jan 9.6 01:40:17 10° S 01:43:11 13° SSE 01:43:48 12° SSE visible
29 Jan 10.2 03:30:34 10° SW 03:30:43 10° SW 03:30:43 10° SW visible
30 Jan 9.4 02:37:11 10° SSW 02:40:28 21° S 02:40:28 21° S visible
31 Jan 9.2 01:43:58 10° SSW 01:49:11 21° SSE 01:50:13 20° SSE visible
31 Jan 10.0 03:36:11 10° SW 03:37:07 14° SW 03:37:07 14° SW visible
01 Feb 9.5 00:51:03 10° SSW 00:55:31 17° SSE 00:59:52 10° ESE visible
01 Feb 9.1 02:42:32 10° SW 02:46:51 28° SSW 02:46:51 28° SSW visible
02 Feb 8.8 01:48:58 10° SW 01:55:15 29° SSE 01:56:33 27° SE visible
02 Feb 10.0 03:42:06 10° WSW 03:43:27 16° WSW 03:43:27 16° WSW visible
03 Feb 9.2 00:55:33 10° SSW 01:01:32 25° SSE 01:06:15 14° ESE visible
03 Feb 8.9 02:48:17 10° WSW 02:53:09 33° SSW 02:53:09 33° SSW visible
